HRBE
1 37855U 11061F   13002.90431150  .00005969  00000-0  45663-3 0  3839
2 37855 101.7100 140.6659 0241363 140.0723 221.8506 14.82325202 63953
RS-39
1 38051U 11062C   13003.82353255  .00009604  00000-0  35436-3 0   430
2 38051 051.6388 281.0722 0013406 040.3019 025.6669 15.28351420 52612
E-STAR
1 38079U 12006C   13003.67348717  .00037445  00000-0  83302-3 0  7738
2 38079 069.4805 212.2939 0675403 351.6631 007.3701 14.31428231 46095
GOLIAT
1 38085U 12006J   13003.69022442  .00034824  00000-0  78005-3 0  7384
2 38085 069.4813 213.3688 0681775 352.2505 006.8451 14.29944484 46063
HORYU-2
1 38340U 12025D   13003.86847000  .00000903  00000-0  15713-3 0  3051
2 38340 098.1987 310.3301 0013855 055.3885 304.8598 14.70511680 33960
RS-40
1 38736U 12041D   13002.73659152  .00000010  00000-0  00000 0 0  1508
2 38736 082.4781 258.2909 0018905 333.2716 026.7392 12.42649326 19695
PROITERES
1 38756U 12047B   13003.78336627  .00000402  00000-0  69292-4 0  3792
2 38756 098.2725 077.7006 0011508 271.2379 088.7512 14.74029505 17171
AENEAS
1 38760U 0        12362.45618703  .00003317  00000-0  30954-3 0 00261
2 38760 064.6739 080.1262 0216494 260.4485 097.2099 14.79915610003535
CSSWE-D
1 38761U 0        12362.45838096  .00002744  00000-0  25873-3 0 00246
2 38761 064.6742 080.1381 0218126 260.5019 097.1363 14.79742253003556
CXBN-E
1 38762U 0        12362.51998902  .00003134  00000-0  29232-3 0 00233
2 38762 064.6756 079.9149 0217771 260.2501 097.3925 14.79877027003631
OBJECT F
1 38763U 0        12362.45521558  .00002532  00000-0  23959-3 0 00226
2 38763 064.6742 080.1199 0218533 260.5600 097.0729 14.79766060003561
CINEMA-G
1 38764U 0        12362.52098107  .00002492  00000-0  23608-3 0 00219
2 38764 064.6735 079.9005 0218157 260.5336 097.1019 14.79809930003538
CP5
1 38765U 0        12362.51469427  .00003425  00000-0  31783-3 0 00249
2 38765 064.6724 079.8680 0217159 260.1766 097.4748 14.79969424003536
RAIKO
1 38852U 98067CN  13003.85165722  .00028751  00000-0  38416-3 0   976
2 38852 051.6470 202.5976 0017573 114.1872 246.0962 15.57641913 14128
FITSAT 1
1 38853U 98067CP  13003.81499280  .00035382  00000-0  45004-3 0   959
2 38853 051.6467 202.3603 0015117 129.2254 231.0158 15.58889719 14178
TechEdSat
1 38854U 98067CQ  13003.86370575  .00054240  00000-0  61339-3 0  1044
2 38854 051.6443 201.1772 0014481 134.5009 225.7172 15.61779095 14194
F 1
1 38855U 98067CR  13003.42511455  .00050539  00000-0  58034-3 0  1079
2 38855 051.6447 203.4966 0015140 134.2643 225.9614 15.61401578 14015
WeWish
1 38856U 98067CS  13003.77583743  .00107147  00000-0  93492-3 0  1229
2 38856 051.6406 199.8271 0015337 137.0131 223.2067 15.67993507 14094
